If you wish to contribute or participate in the discussions about articles you are invited to join SKYbrary as a registered user

 Actions

Arak Airport

From SKYbrary Wiki

OIHR
Airport
ICAO: OIHR – IATA: AJK
Summary
Name Arak Airport
Region Middle East
Territory Iran IR.gif
Location Mobarak Abad, Markazi
Serving Arak
Elevation 1,662.074 m5,453 ft1,662.074 m
Coordinates 34° 8' 1.8164", 49° 50' 33.9475"
Runways
Designator Length Width Surface ROPS
8/26 2990 m9,809.711 ft 45 m147.638 ft ASP /


METAR
Observation OIHR 150800Z 14008KT 8000 -RA FEW010 SCT040 BKN080 08/05 Q1022
Station Arak
Date/Time 15 November 2018 08:00:00
Wind direction 140°
Wind speed 08 kts
Lowest cloud amount few clouds
Temperature 8°C
Dew point 5°C
Humidity 81%
QNH 1022 hPa
Weather condition n/a

Airport serving Arak, Iran.

Climatology

Continental climate (Köppen climate classification Dsa).

Maps

Terrain

Loading map...

Airport Layout

Loading map...


Accidents & Serious Incidents at or in vicinity of OIHR

None on SKYbrary